DT_LEITURA;HR_LEITURA;MED-PressaoAtm[hPa];VAL-TempExt[oC];VAL-UmidExt[%UR];VAL-TempInt[oC];VAL-UmidInt[%UR];Dir-Vento[grau];Vel-Vento[m/s];Precipitação[mm/h]
20/04/2026;00:04:00;1015,4;18,0;80;20,9;69;;;0,0
20/04/2026;00:09:00;1015,3;17,9;81;20,8;69;;;0,0
20/04/2026;00:14:00;1015,3;17,8;81;20,7;69;;;0,0
20/04/2026;00:19:00;1015,3;17,8;81;20,7;69;;;0,0
20/04/2026;00:24:00;1015,3;17,8;81;20,7;69;;;0,0
20/04/2026;00:29:00;1015,3;17,8;80;20,6;69;;;0,0
20/04/2026;00:34:00;1015,3;17,8;80;20,6;69;;;0,0
20/04/2026;00:39:00;1015,4;17,9;80;20,6;69;;;0,0
20/04/2026;00:44:00;1015,4;17,9;80;20,6;69;;;0,0
20/04/2026;00:49:00;1015,3;18,0;80;20,6;69;;;0,0
20/04/2026;00:54:00;1015,2;18,1;79;20,6;69;;;0,0
20/04/2026;00:59:00;1015,3;18,1;79;20,6;69;;;0,0
20/04/2026;01:04:00;1015,2;18,0;79;20,5;69;;;0,0
20/04/2026;01:09:00;1015,2;17,9;80;20,5;69;;;0,0
20/04/2026;01:14:00;1015,2;17,8;81;20,4;69;;;0,0
20/04/2026;01:19:00;1015,1;17,7;81;20,4;69;;;0,0
20/04/2026;01:24:00;1015,1;17,5;82;20,4;69;;;0,0
20/04/2026;01:29:00;1015,1;17,3;83;20,3;69;;;0,0
20/04/2026;01:34:00;1015,2;17,2;84;20,2;69;;;0,0
20/04/2026;01:39:00;1015,1;17,2;84;20,2;69;;;0,0
20/04/2026;01:44:00;1015,1;17,2;83;20,2;69;;;0,0
20/04/2026;01:49:00;1015,1;17,1;83;20,1;69;;;0,0
20/04/2026;01:54:00;1015,2;17,0;83;20,1;69;;;0,0
20/04/2026;01:59:00;1015,2;17,0;82;20,1;69;;;0,0
20/04/2026;02:04:00;1015,2;17,1;81;20,0;69;;;0,0
20/04/2026;02:09:00;1015,2;17,2;80;20,0;69;;;0,0
20/04/2026;02:14:00;1015,1;17,3;80;19,9;69;;;0,0
20/04/2026;02:19:00;1015,1;17,3;79;19,9;69;;;0,0
20/04/2026;02:24:00;1015,1;17,3;79;19,9;69;;;0,0
20/04/2026;02:29:00;1015,1;17,3;79;19,9;69;;;0,0
20/04/2026;02:34:00;1015,0;17,3;79;19,9;69;;;0,0
20/04/2026;02:39:00;1015,0;17,4;79;19,9;69;;;0,0
20/04/2026;02:44:00;1014,9;17,4;78;19,9;69;;;0,0
20/04/2026;02:49:00;1014,7;17,5;78;19,9;69;;;0,0
20/04/2026;02:54:00;1014,6;17,5;77;19,9;69;;;0,0
20/04/2026;02:59:00;1014,6;17,6;77;19,9;69;;;0,0
20/04/2026;03:04:00;1014,7;17,7;77;19,9;69;;;0,0
20/04/2026;03:09:00;1014,7;17,8;76;19,9;69;;;0,0
20/04/2026;03:14:00;1014,7;17,9;76;19,9;69;;;0,0
20/04/2026;03:19:00;1014,8;18,0;75;19,9;69;;;0,0
20/04/2026;03:24:00;1014,8;18,0;75;19,9;69;;;0,0
20/04/2026;03:29:00;1014,9;18,1;75;19,9;69;;;0,0
20/04/2026;03:34:00;1014,9;18,1;75;19,9;69;;;0,0
20/04/2026;03:39:00;1014,9;18,2;74;19,9;69;;;0,0
20/04/2026;03:44:00;1014,9;18,2;74;19,9;69;;;0,0
20/04/2026;03:49:00;1014,9;18,3;74;19,9;69;;;0,0
20/04/2026;03:54:00;1014,9;18,3;74;19,9;69;;;0,0
20/04/2026;03:59:00;1014,9;18,2;74;19,9;69;;;0,0
20/04/2026;04:04:00;1014,9;18,1;74;19,8;69;;;0,0
20/04/2026;04:09:00;1014,9;18,0;75;19,7;69;;;0,0
20/04/2026;04:14:00;1014,9;17,9;75;19,6;69;;;0,0
20/04/2026;04:19:00;1015,0;17,6;77;19,6;69;;;0,0
20/04/2026;04:24:00;1015,1;17,5;77;19,5;69;;;0,0
20/04/2026;04:29:00;1015,1;17,4;78;19,4;69;;;0,0
20/04/2026;04:34:00;1015,1;17,3;78;19,3;69;;;0,0
20/04/2026;04:39:00;1015,0;17,3;78;19,3;69;;;0,0
20/04/2026;04:44:00;1015,0;17,2;78;19,3;69;;;0,0
20/04/2026;04:49:00;1015,0;17,0;79;19,2;69;;;0,0
20/04/2026;04:54:00;1015,1;16,9;80;19,1;69;;;0,0
20/04/2026;04:59:00;1015,1;16,7;81;19,0;69;;;0,0
20/04/2026;05:04:00;1015,0;16,6;81;19,0;69;;;0,0
20/04/2026;05:09:00;1015,0;16,4;82;18,9;69;;;0,0
20/04/2026;05:14:00;1015,0;16,3;82;18,8;69;;;0,0
20/04/2026;05:19:00;1015,0;16,2;83;18,7;69;;;0,0
20/04/2026;05:24:00;1015,1;16,1;83;18,7;69;;;0,0
20/04/2026;05:29:00;1015,2;16,1;84;18,6;69;;;0,0
20/04/2026;05:34:00;1015,2;16,0;85;18,6;69;;;0,0
20/04/2026;05:39:00;1015,3;15,9;85;18,5;69;;;0,0
20/04/2026;05:44:00;1015,4;15,8;86;18,5;69;;;0,0
20/04/2026;05:49:00;1015,4;15,7;87;18,5;69;;;0,0
20/04/2026;05:54:00;1015,5;15,6;87;18,4;69;;;0,0
20/04/2026;05:59:00;1015,6;15,6;88;18,4;69;;;0,0
20/04/2026;06:04:00;1015,6;15,5;88;18,4;69;;;0,0
20/04/2026;06:09:00;1015,6;15,4;89;18,4;69;;;0,0
20/04/2026;06:14:00;1015,7;15,3;89;18,4;69;;;0,0
20/04/2026;06:19:00;1015,8;15,3;89;18,4;69;;;0,0
20/04/2026;06:24:00;1015,9;15,2;90;18,4;69;;;0,0
20/04/2026;06:29:00;1015,8;15,2;90;18,4;69;;;0,0
20/04/2026;06:34:00;1015,8;15,1;91;18,4;69;;;0,0
20/04/2026;06:39:00;1015,9;15,1;91;18,4;69;;;0,0
20/04/2026;06:44:00;1015,9;15,0;91;18,4;69;;;0,0
20/04/2026;06:49:00;1015,9;14,9;91;18,4;69;;;0,0
20/04/2026;06:54:00;1016,0;14,9;92;18,4;69;;;0,0
20/04/2026;06:59:00;1016,0;14,8;93;18,4;69;;;0,0
20/04/2026;07:04:00;1015,9;14,8;93;18,4;69;;;0,0
20/04/2026;07:09:00;1016,0;14,8;95;18,4;69;;;0,0
20/04/2026;07:14:00;1016,0;14,8;96;18,4;69;;;0,0
20/04/2026;07:19:00;1015,9;14,8;97;18,4;69;;;0,0
20/04/2026;07:24:00;1016,0;14,8;97;18,5;70;;;0,0
20/04/2026;07:29:00;1016,2;14,8;97;18,5;69;;;0,0
20/04/2026;07:34:00;1016,2;14,7;99;18,5;69;;;0,0
20/04/2026;07:39:00;1016,1;14,7;99;18,5;69;;;0,0
20/04/2026;07:44:00;1016,1;14,7;100;18,6;69;;;0,0
20/04/2026;07:49:00;1016,2;14,7;100;18,6;69;;;0,0
20/04/2026;07:54:00;1016,3;14,7;;18,7;70;;;0,0
20/04/2026;07:59:00;1016,3;15,0;100;18,7;70;;;0,0
20/04/2026;08:04:00;1016,3;15,4;97;18,7;70;;;0,0
20/04/2026;08:09:00;1016,5;15,8;92;18,8;70;;;0,0
20/04/2026;08:14:00;1016,5;16,0;90;18,9;70;;;0,0
20/04/2026;08:19:00;1016,6;16,4;87;19,0;70;;;0,0
20/04/2026;08:24:00;1016,7;16,7;85;19,1;70;;;0,0
20/04/2026;08:29:00;1016,7;17,2;83;19,2;70;;;0,0
20/04/2026;08:39:00;1016,7;18,5;79;19,4;70;;;0,0
20/04/2026;08:44:00;1016,7;19,0;76;19,6;70;;;0,0
20/04/2026;08:49:00;1016,8;19,5;74;19,7;71;;;0,0
20/04/2026;08:54:00;1016,9;20,0;73;19,9;71;;;0,0
20/04/2026;08:59:00;1017,0;20,8;71;20,1;71;;;0,0
20/04/2026;09:04:00;1017,1;21,2;69;20,3;71;;;0,0
20/04/2026;09:09:00;1017,0;21,7;68;20,5;71;;;0,0
20/04/2026;09:14:00;1017,0;22,2;67;20,7;71;;;0,0
20/04/2026;09:19:00;1017,1;22,7;66;20,9;71;;;0,0
20/04/2026;09:24:00;1017,0;23,0;65;21,2;71;;;0,0
20/04/2026;09:29:00;1017,1;23,5;65;21,4;71;;;0,0
20/04/2026;09:34:00;1017,1;23,8;64;21,7;70;;;0,0
20/04/2026;09:39:00;1017,2;24,2;63;21,9;70;;;0,0
20/04/2026;09:44:00;1017,2;24,6;60;22,2;70;;;0,0
20/04/2026;09:49:00;1017,2;24,3;59;22,4;70;;;0,0
20/04/2026;09:54:00;1017,2;24,1;59;22,7;70;;;0,0
20/04/2026;09:59:00;1017,2;23,8;60;22,9;70;;;0,0
20/04/2026;10:04:00;1017,2;23,8;61;23,1;69;;;0,0
20/04/2026;10:09:00;1017,1;24,1;61;23,2;69;;;0,0
20/04/2026;10:14:00;1017,0;24,4;60;23,4;69;;;0,0
20/04/2026;10:19:00;1017,0;24,4;60;23,6;69;;;0,0
20/04/2026;10:24:00;1016,9;24,4;61;23,8;69;;;0,0
20/04/2026;10:29:00;1016,9;24,3;61;24,0;69;;;0,0
20/04/2026;10:34:00;1016,9;24,4;62;24,1;69;;;0,0
20/04/2026;10:39:00;1016,9;25,1;62;24,3;69;;;0,0
20/04/2026;10:44:00;1016,9;25,5;61;24,5;69;;;0,0
20/04/2026;10:49:00;1016,8;25,9;60;24,7;69;;;0,0
20/04/2026;10:54:00;1016,9;25,5;60;24,9;69;;;0,0
20/04/2026;10:59:00;1016,9;25,2;61;25,1;69;;;0,0
20/04/2026;11:04:00;1016,9;25,3;61;25,4;69;;;0,0
20/04/2026;11:09:00;1016,9;25,3;61;25,6;69;;;0,0
20/04/2026;11:14:00;1016,8;25,0;61;25,8;69;;;0,0
20/04/2026;11:19:00;1016,8;24,6;63;26,0;68;;;0,0
20/04/2026;11:24:00;1016,8;24,4;63;26,2;68;;;0,0
20/04/2026;11:29:00;1016,7;24,5;63;26,3;68;;;0,0
20/04/2026;11:34:00;1016,7;24,5;63;26,5;68;;;0,0
20/04/2026;11:39:00;1016,7;24,5;64;26,6;68;;;0,0
20/04/2026;11:49:00;1016,6;24,3;64;26,9;68;;;0,0
20/04/2026;11:54:00;1016,6;24,6;64;27,1;68;;;0,0
20/04/2026;11:59:00;1016,6;24,9;62;27,2;68;;;0,0
20/04/2026;12:04:00;1016,6;24,8;63;27,4;68;;;0,0
20/04/2026;12:09:00;1016,6;25,1;63;27,6;68;;;0,0
20/04/2026;12:14:00;1016,5;25,0;63;27,8;68;;;0,0
20/04/2026;12:19:00;1016,4;25,1;63;27,9;68;;;0,0
20/04/2026;12:24:00;1016,3;25,1;63;28,1;68;;;0,0
20/04/2026;12:29:00;1016,2;24,9;64;28,2;68;;;0,0
20/04/2026;12:34:00;1016,1;24,9;64;28,4;68;;;0,0
20/04/2026;12:39:00;1016,1;24,8;65;28,5;68;;;0,0
20/04/2026;12:44:00;1016,0;25,0;64;28,6;68;;;0,0
20/04/2026;12:49:00;1015,9;24,9;64;28,8;68;;;0,0
20/04/2026;12:54:00;1015,9;24,9;64;28,9;68;;;0,0
20/04/2026;12:59:00;1015,8;24,8;64;29,0;68;;;0,0
20/04/2026;13:04:00;1015,6;24,7;65;29,1;67;;;0,0
20/04/2026;13:09:00;1015,5;24,6;65;29,2;67;;;0,0
20/04/2026;13:14:00;1015,5;24,4;66;29,3;67;;;0,0
20/04/2026;13:19:00;1015,4;24,3;66;29,3;67;;;0,0
20/04/2026;13:24:00;1015,4;24,2;66;29,3;67;;;0,0
20/04/2026;13:29:00;1015,3;24,2;67;29,3;67;;;0,0
20/04/2026;13:34:00;1015,3;24,2;66;29,3;67;;;0,0
20/04/2026;13:39:00;1015,2;24,3;66;29,4;67;;;0,0
20/04/2026;13:44:00;1015,3;24,2;67;29,4;67;;;0,0
20/04/2026;13:49:00;1015,3;24,3;67;29,5;67;;;0,0
20/04/2026;13:54:00;1015,3;24,4;67;29,6;67;;;0,0
20/04/2026;13:59:00;1015,3;24,6;66;29,7;67;;;0,0
20/04/2026;14:04:00;1015,3;24,6;66;29,8;67;;;0,0
20/04/2026;14:09:00;1015,2;24,6;66;29,9;67;;;0,0
20/04/2026;14:14:00;1015,2;24,8;66;30,1;67;;;0,0
20/04/2026;14:19:00;1015,2;24,8;66;30,2;67;;;0,0
20/04/2026;14:24:00;1015,3;24,7;67;30,3;67;;;0,0
20/04/2026;14:29:00;1015,2;24,8;67;30,4;67;;;0,0
20/04/2026;14:34:00;1015,2;25,0;67;30,5;67;;;0,0
20/04/2026;14:39:00;1015,2;24,8;67;30,5;67;;;0,0
20/04/2026;14:44:00;1015,2;24,5;68;30,6;67;;;0,0
20/04/2026;14:49:00;1015,3;24,5;68;30,6;67;;;0,0
20/04/2026;14:54:00;1015,3;24,5;68;30,6;67;;;0,0
20/04/2026;14:59:00;1015,3;24,4;68;30,7;67;;;0,0
20/04/2026;15:04:00;1015,4;24,4;68;30,7;67;;;0,0
20/04/2026;15:09:00;1015,4;24,4;68;30,7;67;;;0,0
20/04/2026;15:14:00;1015,4;24,3;69;30,8;67;;;0,0
20/04/2026;15:19:00;1015,4;24,3;69;30,8;67;;;0,0
20/04/2026;15:24:00;1015,3;24,2;69;30,8;66;;;0,0
20/04/2026;15:29:00;1015,3;24,1;69;30,7;66;;;0,0
20/04/2026;15:34:00;1015,3;24,1;70;30,7;66;;;0,0
20/04/2026;15:39:00;1015,3;24,0;70;30,6;66;;;0,0
20/04/2026;15:44:00;1015,2;23,9;70;30,5;66;;;0,0
20/04/2026;15:49:00;1015,1;23,8;71;30,4;67;;;0,0
20/04/2026;15:54:00;1015,1;23,7;71;30,3;67;;;0,0
20/04/2026;15:59:00;1015,0;23,6;71;30,2;67;;;0,0
20/04/2026;16:04:00;1014,9;23,6;71;30,1;67;;;0,0
20/04/2026;16:09:00;1014,9;23,6;71;30,0;67;;;0,0
20/04/2026;16:14:00;1015,1;23,6;71;29,9;68;;;0,0
20/04/2026;16:19:00;1015,1;23,8;71;29,9;68;;;0,0
20/04/2026;16:24:00;1015,1;23,9;70;29,9;68;;;0,0
20/04/2026;16:29:00;1015,0;23,8;70;29,9;68;;;0,0
20/04/2026;16:34:00;1015,0;23,7;71;29,8;68;;;0,0
20/04/2026;16:39:00;1015,0;23,7;71;29,7;68;;;0,0
20/04/2026;16:44:00;1015,0;23,8;71;29,7;68;;;0,0
20/04/2026;16:49:00;1015,0;23,8;71;29,6;68;;;0,0
20/04/2026;16:54:00;1015,0;23,9;71;29,5;68;;;0,0
20/04/2026;16:59:00;1015,0;23,8;71;29,4;68;;;0,0
20/04/2026;17:04:00;1014,9;23,7;71;29,2;68;;;0,0
20/04/2026;17:09:00;1014,9;23,6;72;29,0;68;;;0,0
20/04/2026;17:14:00;1014,9;23,5;72;28,8;68;;;0,0
20/04/2026;17:19:00;1015,0;23,5;72;28,6;68;;;0,0
20/04/2026;17:24:00;1015,0;23,2;73;28,3;69;;;0,0
20/04/2026;17:29:00;1015,0;22,8;74;28,0;69;;;0,0
20/04/2026;17:34:00;1015,0;22,7;74;27,8;69;;;0,0
20/04/2026;17:39:00;1015,0;22,4;75;27,5;69;;;0,0
20/04/2026;17:44:00;1014,9;22,2;75;27,3;69;;;0,0
20/04/2026;17:49:00;1014,9;22,0;76;27,0;69;;;0,0
20/04/2026;17:54:00;1015,0;21,9;76;26,8;69;;;0,0
20/04/2026;17:59:00;1015,1;21,7;77;26,6;70;;;0,0
20/04/2026;18:04:00;1015,1;21,6;77;26,4;70;;;0,0
20/04/2026;18:09:00;1015,1;21,5;78;26,2;70;;;0,0
20/04/2026;18:14:00;1015,1;21,4;78;26,1;70;;;0,0
20/04/2026;18:19:00;1015,1;21,2;79;25,9;70;;;0,0
20/04/2026;18:24:00;1015,1;21,0;80;25,8;70;;;0,0
20/04/2026;18:29:00;1015,0;20,8;80;25,6;70;;;0,0
20/04/2026;18:34:00;1015,0;20,6;81;25,5;70;;;0,0
20/04/2026;18:39:00;1014,9;20,5;82;25,4;70;;;0,0
20/04/2026;18:44:00;1015,0;20,3;82;25,2;70;;;0,0
20/04/2026;18:49:00;1015,1;20,2;82;25,1;70;;;0,0
20/04/2026;18:54:00;1015,2;20,1;82;25,0;70;;;0,0
20/04/2026;18:59:00;1015,3;20,1;83;24,9;70;;;0,0
20/04/2026;19:04:00;1015,3;20,0;83;24,8;70;;;0,0
20/04/2026;19:09:00;1015,3;19,9;84;24,7;70;;;0,0
20/04/2026;19:14:00;1015,4;19,8;85;24,6;70;;;0,0
20/04/2026;19:19:00;1015,5;19,7;86;24,5;70;;;0,0
20/04/2026;19:24:00;1015,6;19,6;87;24,4;70;;;0,0
20/04/2026;19:29:00;1015,7;19,5;86;24,4;70;;;0,0
20/04/2026;19:34:00;1015,8;19,2;85;24,3;70;;;0,0
20/04/2026;19:39:00;1015,8;19,1;86;24,2;70;;;0,0
20/04/2026;19:44:00;1015,8;19,0;87;24,1;70;;;0,0
20/04/2026;19:49:00;1015,8;18,9;88;24,0;70;;;0,0
20/04/2026;19:54:00;1015,8;18,8;89;23,9;70;;;0,0
20/04/2026;19:59:00;1015,9;18,7;89;23,8;70;;;0,0
20/04/2026;20:04:00;1015,9;18,6;90;23,7;70;;;0,0
20/04/2026;20:09:00;1015,9;18,5;91;23,6;70;;;0,0
20/04/2026;20:14:00;1015,9;18,3;92;23,5;70;;;0,0
20/04/2026;20:19:00;1015,9;18,3;92;23,4;70;;;0,0
20/04/2026;20:24:00;1015,8;18,2;93;23,4;69;;;0,0
20/04/2026;20:29:00;1015,8;18,0;94;23,3;69;;;0,0
20/04/2026;20:34:00;1015,9;18,0;95;23,2;69;;;0,0
20/04/2026;20:39:00;1015,8;17,8;96;23,1;69;;;0,0
20/04/2026;20:44:00;1015,8;17,7;97;23,0;69;;;0,0
20/04/2026;20:49:00;1015,8;17,6;99;22,9;69;;;0,0
20/04/2026;20:54:00;1015,8;17,5;100;22,9;69;;;0,0
20/04/2026;20:59:00;1015,9;17,4;100;22,8;69;;;0,0
20/04/2026;21:04:00;1015,9;17,3;;22,8;69;;;0,0
20/04/2026;21:09:00;1016,0;17,2;;22,7;69;;;0,0
20/04/2026;21:14:00;1016,1;17,1;;22,7;69;;;0,0
20/04/2026;21:19:00;1016,1;17,0;;22,7;69;;;0,0
20/04/2026;21:24:00;1016,2;16,9;;22,6;69;;;0,0
20/04/2026;21:29:00;1016,3;16,9;;22,6;69;;;0,0
20/04/2026;21:34:00;1016,4;16,9;;22,6;69;;;0,0
20/04/2026;21:39:00;1016,3;16,8;;22,6;69;;;0,0
20/04/2026;21:44:00;1016,3;16,8;;22,6;69;;;0,0
20/04/2026;21:49:00;1016,3;16,8;;22,5;69;;;0,0
20/04/2026;21:54:00;1016,3;16,8;;22,5;69;;;0,0
20/04/2026;21:59:00;1016,3;16,8;;22,4;69;;;0,0
20/04/2026;22:04:00;1016,3;16,8;100;22,4;69;;;0,0
20/04/2026;22:09:00;1016,3;16,9;99;22,4;69;;;0,0
20/04/2026;22:14:00;1016,3;16,9;97;22,3;69;;;0,0
20/04/2026;22:19:00;1016,4;16,9;96;22,3;69;;;0,0
20/04/2026;22:24:00;1016,4;16,9;98;22,3;69;;;0,0
20/04/2026;22:29:00;1016,4;17,0;97;22,3;69;;;0,0
20/04/2026;22:34:00;1016,5;17,1;97;22,3;69;;;0,0
20/04/2026;22:39:00;1016,5;17,2;98;22,2;69;;;0,0
20/04/2026;22:44:00;1016,5;17,1;97;22,2;69;;;0,0
20/04/2026;22:49:00;1016,5;17,1;97;22,2;69;;;0,0
20/04/2026;22:54:00;1016,5;17,1;97;22,2;69;;;0,0
20/04/2026;22:59:00;1016,5;17,0;96;22,2;69;;;0,0
20/04/2026;23:04:00;1016,5;16,9;97;22,1;69;;;0,0
20/04/2026;23:09:00;1016,5;16,8;97;22,1;69;;;0,0
20/04/2026;23:14:00;1016,4;16,7;99;22,0;69;;;0,0
20/04/2026;23:19:00;1016,4;16,7;99;22,0;69;;;0,0
20/04/2026;23:24:00;1016,4;16,6;100;21,9;69;;;0,0
20/04/2026;23:29:00;1016,5;16,5;;21,8;69;;;0,0
20/04/2026;23:34:00;1016,6;16,4;;21,7;69;;;0,0
20/04/2026;23:39:00;1016,7;16,5;;21,7;69;;;0,0
20/04/2026;23:44:00;1016,8;16,5;;21,7;69;;;0,0
20/04/2026;23:49:00;1016,8;16,5;;21,7;69;;;0,0
20/04/2026;23:54:00;1016,8;16,4;;21,7;69;;;0,0
20/04/2026;23:59:00;1016,7;16,4;;21,7;69;;;0,0
